Weather History for Spokane, WA

Change the Weather History Date:

Friday, June 28, 2013

  Actual Average Record
Temperature  
Mean Temperature 73 °F 65 °F  
Max Temperature 88 °F 78 °F 96 °F (1896)
Min Temperature 57 °F 53 °F 39 °F (1964)
Degree Days  
Heating Degree Days 0 3  
Month to date heating degree days 140 131  
Since 1 June heating degree days 140 131  
Since 1 July heating degree days 6240 6588  
Cooling Degree Days 8 3  
Month to date cooling degree days 34 43  
Year to date cooling degree days 64 57  
Since 1 June cooling degree days 34 43  
Growing Degree Days 22 (Base 50)    
Moisture  
Dew Point 54 °F    
Average Humidity 59    
Maximum Humidity 87    
Minimum Humidity 30    
Precipitation  
Precipitation 0.00 in 0.02 in 0.58 in (1941)
Month to date precipitation 1.80 1.19  
Year to date precipitation 6.73 8.82  
Snow  
Snow 0.00 in 0.00 in - ()
Month to date snowfall 0.0 0.0  
Since 1 June snowfall 0.0 0.0  
Since 1 July snowfall 43.5 44.9  
Snow Depth 0.00 in    
Sea Level Pressure  
Sea Level Pressure 30.15 in    
Wind  
Wind Speed 4 mph (NNE)    
Max Wind Speed 10 mph    
Max Gust Speed 14 mph    
Visibility 10 miles    
Events      
T = Trace of Precipitation, MM = Missing Value Source: NWS Daily Summary

Daily Weather History Graph

Daily Weather History Graph

Search for Another Location

Airport:

Trip Planner

Search our weather history database for the weather conditions in past years. The results will help you decide how hot, cold, wet, or windy it might be!

Date:

Astronomy

Jun. 28, 2013 Rise Set
Actual Time 4:54 AM PDT 8:51 PM PDT
Civil Twilight 4:14 AM PDT 9:32 PM PDT
Nautical Twilight 3:18 AM PDT 10:28 PM PDT
Astronomical Twilight 1:49 AM PDT 11:56 PM PDT
Moon 11:52 PM PDT (6/28) 11:36 AM PDT (6/28)
Length of Visible Light 17h 18m
Length of Day
15h 56m
Waning Gibbous, 65% of the Moon is Illuminated
Jun 28
Waning Gibbous
Jun 29
Last Quarter
Jul 8
New
Jul 15
First Quarter
Jul 22
Full

Hourly Weather History & Observations

Time (PDT) Temp. Heat Index Dew Point Humidity Pressure Visibility Wind Dir Wind Speed Gust Speed Precip Events Conditions
12:53 AM 64.0 °F - 54.0 °F 70% 30.20 in 10.0 mi Calm Calm - N/A   Partly Cloudy
1:53 AM 62.1 °F - 54.0 °F 75% 30.20 in 10.0 mi Calm Calm - N/A   Clear
2:53 AM 59.0 °F - 54.0 °F 83% 30.21 in 10.0 mi Calm Calm - N/A   Clear
3:53 AM 61.0 °F - 55.0 °F 81% 30.19 in 10.0 mi Calm Calm - N/A   Partly Cloudy
4:53 AM 57.0 °F - 53.1 °F 87% 30.22 in 10.0 mi North 4.6 mph - N/A   Partly Cloudy
5:53 AM 59.0 °F - 55.0 °F 87% 30.22 in 10.0 mi Calm Calm - N/A   Partly Cloudy
6:53 AM 62.1 °F - 55.0 °F 78% 30.22 in 10.0 mi NNE 6.9 mph - N/A   Partly Cloudy
7:53 AM 66.0 °F - 55.0 °F 68% 30.22 in 10.0 mi NNE 9.2 mph - N/A   Partly Cloudy
8:53 AM 68.0 °F - 55.0 °F 63% 30.22 in 10.0 mi NNE 8.1 mph - N/A   Partly Cloudy
9:53 AM 71.1 °F - 55.9 °F 59% 30.22 in 10.0 mi NE 4.6 mph - N/A   Partly Cloudy
10:53 AM 75.9 °F - 55.9 °F 50% 30.20 in 10.0 mi NE 5.8 mph - N/A   Partly Cloudy
11:53 AM 79.0 °F - 54.0 °F 42% 30.19 in 10.0 mi Variable 3.5 mph - N/A   Partly Cloudy
12:53 PM 81.0 °F - 52.0 °F 36% 30.17 in 10.0 mi East 3.5 mph - N/A   Partly Cloudy
1:53 PM 82.9 °F - 52.0 °F 34% 30.16 in 10.0 mi Variable 4.6 mph - N/A   Partly Cloudy
2:53 PM 84.9 °F - 52.0 °F 32% 30.14 in 10.0 mi Variable 4.6 mph - N/A   Partly Cloudy
3:53 PM 86.0 °F - 52.0 °F 31% 30.12 in 10.0 mi Calm Calm - N/A   Scattered Clouds
4:53 PM 87.1 °F 84.9 °F 53.1 °F 31% 30.11 in 10.0 mi NW 6.9 mph - N/A   Scattered Clouds
5:53 PM 88.0 °F 85.7 °F 53.1 °F 30% 30.08 in 10.0 mi NE 8.1 mph - N/A   Scattered Clouds
6:53 PM 86.0 °F 84.2 °F 54.0 °F 33% 30.07 in 10.0 mi NNE 8.1 mph - N/A   Scattered Clouds
7:53 PM 82.9 °F 82.0 °F 55.0 °F 38% 30.07 in 10.0 mi North 6.9 mph - N/A   Partly Cloudy
8:53 PM 78.1 °F - 55.0 °F 45% 30.07 in 10.0 mi North 5.8 mph - N/A   Partly Cloudy
9:53 PM 77.0 °F - 55.9 °F 48% 30.06 in 10.0 mi Calm Calm - N/A   Partly Cloudy
10:53 PM 73.0 °F - 55.9 °F 55% 30.06 in 10.0 mi North 4.6 mph - N/A   Partly Cloudy
11:53 PM 73.9 °F - 55.9 °F 53% 30.05 in 10.0 mi ENE 3.5 mph - N/A   Clear